Regional Weather Roundup
Issued by NWS

Home | Current Version | Previous Version | Graphics & Text | Print | Product List | Glossary On
Versions: 1 2 3 4 5 6 7 8 9 10 11 12 13 14 15 16 17 18 19 20 21 22 23 24 25 26 27 28 29 30 31 32 33 34 35 36 37 38 39 40 41 42 43 44 45 46 47 48 49 50
384
ASUS45 KCYS 081910
RWRWY

WYOMING REGIONAL WEATHER ROUNDUP
NATIONAL WEATHER SERVICE CHEYENNE WY
1200 PM MST MON FEB 08 2016

NOTE:  "FAIR" INDICATES FEW OR NO CLOUDS BELOW 12,000 FEET
WITH NO SIGNIFICANT WEATHER AND/OR OBSTRUCTIONS TO VISIBILITY.

WYZ001-082000-
YELLOWSTONE NATIONAL PARK

CITY           SKY/WX    TMP DP  RH WIND       PRES   REMARKS
LK YELLOWSTONE   N/A     28  16  60 E3        30.61F
W YELLOWSTONE  NOT AVBL

$$
WYZ002>013-054>058-071-098>099-082000-
NORTHERN WYOMING

CITY           SKY/WX    TMP DP  RH WIND       PRES   REMARKS
JACKSON        SUNNY     25  19  80 CALM      30.64F
CODY           FAIR      48  25  40 N5        30.41F
GREYBULL       FAIR      36  18  48 S5        30.46F WCI  32
WORLAND        FAIR      37  21  52 CALM      30.45F
SHERIDAN       FAIR      47  27  45 NW21      30.35F
BUFFALO        FAIR     N/A N/A N/A MISG      30.36F
GILLETTE       FAIR      38  19  46 NW16      30.34F WCI  29
HULETT         CLOUDY    34  10  37 SW12      30.34F WCI  25
NEWCASTLE      FAIR      36   5  27 NW25G32   30.32F WCI  23

$$
WYZ014>020-022>026-101>103-082000-
CENTRAL WYOMING

CITY           SKY/WX    TMP DP  RH WIND       PRES   REMARKS
BIG PINEY      FAIR      37  25  61 N14       30.55F WCI  28
PINEDALE       FAIR      34  25  69 W24       30.52S WCI  21
DUBOIS         FAIR      43  14  31 W26G33    30.46F
LANDER         FAIR      37  21  52 SE6       30.45F WCI  32
RIVERTON       FAIR      27  16  63 E5        30.47F WCI  22
CASPER         FAIR      34  21  59 SW18      30.42F WCI  23
DOUGLAS        CLOUDY    36  22  56 NW16        N/A  WCI  26

$$
WYZ021-027>030-104>119-082000-
SOUTHERN WYOMING

CITY           SKY/WX    TMP DP  RH WIND       PRES   REMARKS
EVANSTON       FAIR      21  13  71 CALM      30.64F
KEMMERER       FAIR      36  25  64 W12       30.59F WCI  27
FORT BRIDGER   CLEAR     36  25  64 W10       30.63F WCI  28
ROCK SPRINGS   FAIR      33  22  63 W22       30.54F WCI  21
DIXON          FAIR      28  17  63 CALM      30.59F
RAWLINS        FAIR      32  21  64 W20       30.48F WCI  20
SARATOGA       MOCLDY    34  25  69 SW9       30.51F WCI  26
LARAMIE          N/A     39  24  55 NW25G35   30.40F WCI  28
CHEYENNE       FAIR      41  24  51 NW18G29   30.35F
TORRINGTON     CLOUDY    39  20  46 W16       30.37F WCI  30
PINE BLUFFS    CLOUDY    37  27  65 NW22G28   30.36F WCI  27

$$




USA.gov is the U.S. government's official web portal to all federal, state and local government web resources and services.